DW2217 Weather Reports


Display with metric or nautical units.
time (UTC)temp
F
wind
direction
speed
MPH
gust
MPH
rain 1hr
in
rain 24hr
in
rain mn
in
humidity
%
barometer
mb
20260504222229 67 241 4.0 5.0 0.00 0.00 0.00 37 1004.3
20260504221727 66 257 3.0 5.0 0.00 0.00 0.00 38 1004.2
20260504221224 67 240 5.0 5.0 0.00 0.00 0.00 38 1004.1
20260504220720 66 258 5.0 7.0 0.00 0.00 0.00 36 1004.4
20260504220218 67 266 4.0 7.0 0.00 0.00 0.00 36 1004.2
20260504215714 66 281 4.0 5.0 0.00 0.00 0.00 35 1004.3
20260504215211 66 266 5.0 7.0 0.00 0.00 0.00 36 1004.2
20260504214707 66 255 5.0 7.0 0.00 0.00 0.00 37 1004.2
20260504214204 67 277 10.0 12.0 0.00 0.00 0.00 36 1004.2
20260504213700 67 265 9.0 12.0 0.00 0.00 0.00 35 1004.2
20260504213157 69 266 8.0 10.0 0.00 0.00 0.00 35 1004.0
20260504212654 68 317 7.0 15.0 0.00 0.00 0.00 34 1004.2
20260504212150 68 245 9.0 10.0 0.00 0.00 0.00 34 1004.1
20260504211648 69 257 8.0 10.0 0.00 0.00 0.00 35 1004.2
20260504211144 69 278 5.0 9.0 0.00 0.00 0.00 36 1004.2
20260504210642 68 250 7.0 12.0 0.00 0.00 0.00 34 1004.0
20260504210138 68 267 7.0 9.0 0.00 0.00 0.00 36 1004.0
20260504205636 67 257 9.0 10.0 0.00 0.00 0.00 36 1004.1
20260504205133 67 249 7.0 10.0 0.00 0.00 0.00 39 1004.0
20260504204632 67 289 10.0 14.0 0.00 0.00 0.00 37 1004.1
20260504204130 68 266 9.0 14.0 0.00 0.00 0.00 35 1004.1
20260504203628 68 273 11.0 14.0 0.00 0.00 0.00 36 1004.2
20260504203125 68 233 14.0 17.0 0.00 0.00 0.00 35 1004.2
20260504202620 67 325 10.0 17.0 0.00 0.00 0.00 36 1004.0
20260504202117 67 269 10.0 14.0 0.00 0.00 0.00 37 1004.3
20260504201614 67 255 8.0 15.0 0.00 0.00 0.00 38 1004.2
20260504201112 67 273 8.0 9.0 0.00 0.00 0.00 37 1004.2
20260504200609 66 266 11.0 17.0 0.00 0.00 0.00 38 1004.2
20260504200105 66 252 9.0 15.0 0.00 0.00 0.00 38 1004.4
20260504195601 66 305 15.0 19.0 0.00 0.00 0.00 39 1004.5
20260504195057 66 270 9.0 10.0 0.00 0.00 0.00 39 1004.3
20260504194554 67 266 11.0 15.0 0.00 0.00 0.00 38 1004.5
20260504194050 66 274 11.0 17.0 0.00 0.00 0.00 39 1004.8
20260504193547 66 282 9.0 10.0 0.00 0.00 0.00 39 1004.4
20260504193045 66 268 13.0 15.0 0.00 0.00 0.00 41 1004.7
20260504192543 66 310 11.0 15.0 0.00 0.00 0.00 42 1004.8
20260504192041 65 279 8.0 15.0 0.00 0.00 0.00 41 1004.6
20260504191538 65 293 8.0 10.0 0.00 0.00 0.00 41 1004.7
20260504191034 64 278 4.0 12.0 0.00 0.00 0.00 45 1004.7
20260504190531 63 311 2.0 3.0 0.00 0.00 0.00 45 1004.8
20260504190027 62 339 3.0 3.0 0.00 0.00 0.00 46 1004.8
20260504185525 62 270 4.0 9.0 0.00 0.00 0.00 46 1005.0
20260504185021 62 312 3.0 5.0 0.00 0.00 0.00 47 1005.0
20260504184516 62 272 5.0 12.0 0.00 0.00 0.00 45 1005.1
20260504184012 63 266 5.0 9.0 0.00 0.00 0.00 45 1005.1
20260504183509 62 271 6.0 9.0 0.00 0.00 0.00 46 1005.2
20260504183008 62 326 6.0 9.0 0.00 0.00 0.00 47 1005.2
20260504182504 64 323 6.0 10.0 0.00 0.00 0.00 45 1005.1
20260504182001 64 278 3.0 5.0 0.00 0.00 0.00 46 1005.1
20260504181458 61 313 5.0 10.0 0.00 0.00 0.00 48 1005.2
20260504180956 61 286 6.0 9.0 0.00 0.00 0.00 48 1005.3
20260504180455 61 277 5.0 9.0 0.00 0.00 0.00 48 1005.2
20260504175953 61 309 6.0 7.0 0.00 0.00 0.00 47 1005.1
20260504175450 61 295 6.0 9.0 0.00 0.00 0.00 46 1005.2
20260504174947 61 288 5.0 7.0 0.00 0.00 0.00 47 1005.2
20260504174445 62 315 3.0 9.0 0.00 0.00 0.00 45 1005.2
20260504173942 62 273 8.0 15.0 0.00 0.00 0.00 44 1005.0
20260504173438 63 303 8.0 15.0 0.00 0.00 0.00 42 1005.0
20260504172936 63 273 7.0 12.0 0.00 0.00 0.00 43 1005.0
20260504172432 61 283 7.0 10.0 0.00 0.00 0.00 44 1005.2
20260504171929 61 285 11.0 17.0 0.00 0.00 0.00 43 1005.3
20260504171426 61 292 7.0 15.0 0.00 0.00 0.00 43 1005.2
20260504170923 61 253 11.0 12.0 0.00 0.00 0.00 43 1005.1
20260504170419 61 284 10.0 15.0 0.00 0.00 0.00 41 1005.0
20260504160338 63 255 10.0 14.0 0.00 0.00 0.00 40 1004.4
20260504150803 60 236 7.0 10.0 0.00 0.00 0.00 46 1005.2
20260504150259 59 242 5.0 9.0 0.00 0.00 0.00 48 1005.3
20260504141229 55 212 4.0 5.0 0.00 0.00 0.00 57 1006.0
20260504140726 54 231 5.0 7.0 0.00 0.00 0.00 59 1006.5
20260504140221 54 222 6.0 9.0 0.00 0.00 0.00 59 1006.0
20260504130650 51 252 3.0 9.0 0.00 0.00 0.00 66 1006.9
20260504130146 51 219 9.0 10.0 0.00 0.00 0.00 63 1007.0
20260504120110 48 246 7.0 9.0 0.00 0.00 0.00 65 1007.5
20260504110537 45 8 2.0 3.0 0.00 0.00 0.00 63 1007.4
20260504100454 43 269 5.0 7.0 0.00 0.00 0.00 61 1007.2
20260504081847 44 256 6.0 9.0 0.00 0.00 0.00 51 1007.2
20260504081343 42 252 5.0 9.0 0.00 0.00 0.00 53 1007.2
20260504080839 43 262 3.0 3.0 0.00 0.00 0.00 53 1007.2
20260504080337 43 279 3.0 5.0 0.00 0.00 0.00 52 1007.2
20260504070304 42 262 5.0 7.0 0.00 0.00 0.00 55 1007.3
20260504060224 42 258 6.0 7.0 0.00 0.00 0.00 57 1007.1
20260504050652 42 265 5.0 7.0 0.00 0.00 0.00 59 1006.9
20260504050149 42 260 6.0 7.0 0.00 0.00 0.00 59 1006.9
20260504045646 41 251 6.0 7.0 0.00 0.00 0.00 61 1007.2
20260504045146 40 264 5.0 5.0 0.00 0.00 0.00 64 1007.0
20260504044644 40 264 4.0 7.0 0.00 0.00 0.00 64 1007.2
20260504044141 41 264 4.0 5.0 0.00 0.00 0.00 63 1007.1
20260504043638 41 259 4.0 5.0 0.00 0.00 0.00 64 1006.9
20260504043135 41 263 3.0 5.0 0.00 0.00 0.00 63 1006.9
20260504042632 41 256 3.0 5.0 0.00 0.00 0.00 62 1007.1
20260504042129 41 245 3.0 3.0 0.00 0.00 0.00 63 1007.0
20260504041625 41 244 3.0 3.0 0.00 0.00 0.00 62 1006.9
20260504041121 40 245 3.0 3.0 0.00 0.00 0.00 64 1007.0
20260504040619 40 243 2.0 3.0 0.00 0.00 0.00 64 1007.0
20260504040115 41 243 3.0 3.0 0.00 0.00 0.00 64 1007.1
20260504035612 40 243 2.0 3.0 0.00 0.00 0.00 65 1006.9
20260504035108 40 243 2.0 3.0 0.00 0.00 0.00 63 1006.8
20260504034607 40 244 1.0 2.0 0.00 0.00 0.00 67 1006.7
20260504034103 41 243 1.0 2.0 0.00 0.00 0.00 62 1006.8
20260504033601 41 244 2.0 3.0 0.00 0.00 0.00 63 1006.9
20260504033058 41 243 2.0 2.0 0.00 0.00 0.00 61 1006.7
20260504032555 41 244 1.0 3.0 0.00 0.00 0.00 61 1006.8
20260504032052 41 254 3.0 5.0 0.00 0.00 0.00 61 1007.1
20260504031549 41 214 2.0 2.0 0.00 0.00 0.00 62 1006.8
20260504031045 40 222 2.0 3.0 0.00 0.00 0.00 62 1006.7
20260504030542 41 221 2.0 2.0 0.00 0.00 0.00 65 1006.9
20260504030038 40 223 2.0 3.0 0.00 0.00 0.00 65 1006.8
20260504025536 40 294 1.0 2.0 0.00 0.00 0.00 67 1006.7
20260504025032 40 294 0.0 2.0 0.00 0.00 0.00 69 1006.8
20260504024529 39 295 0.0 0.0 0.00 0.00 0.00 72 1006.8
20260504024026 40 295 0.0 0.0 0.00 0.00 0.00 68 1006.8
20260504023523 41 295 0.0 2.0 0.00 0.00 0.00 68 1006.9
20260504023019 40 276 3.0 5.0 0.00 0.00 0.00 66 1006.9
20260504022514 40 296 3.0 5.0 0.00 0.00 0.00 70 1007.0
20260504022011 39 307 3.0 5.0 0.00 0.00 0.00 71 1007.0
20260504021509 38 326 2.0 3.0 0.00 0.00 0.00 81 1007.0
20260504021006 40 327 2.0 2.0 0.00 0.00 0.00 77 1006.8
20260504020503 41 322 2.0 2.0 0.00 0.00 0.00 68 1006.8
20260504015959 41 301 2.0 3.0 0.00 0.00 0.00 67 1006.8
20260504015455 42 284 3.0 3.0 0.00 0.00 0.00 66 1006.7
20260504014951 42 300 3.0 5.0 0.00 0.00 0.00 65 1006.6
20260504014447 42 299 4.0 5.0 0.00 0.00 0.00 63 1006.9
20260504013944 43 319 3.0 5.0 0.00 0.00 0.00 60 1006.7
20260504013443 43 285 6.0 7.0 0.00 0.00 0.00 59 1006.9
20260504012938 42 292 4.0 5.0 0.00 0.00 0.00 64 1006.7
20260504012437 42 274 3.0 5.0 0.00 0.00 0.00 69 1006.7
20260504011934 43 314 2.0 3.0 0.00 0.00 0.00 68 1006.7
20260504011431 43 322 2.0 3.0 0.00 0.00 0.00 64 1006.5
20260504010927 44 295 3.0 5.0 0.00 0.00 0.00 60 1006.6
20260504010423 44 287 3.0 5.0 0.00 0.00 0.00 60 1006.7
20260504005919 44 286 5.0 5.0 0.00 0.00 0.00 59 1006.7
20260504005416 44 280 5.0 7.0 0.00 0.00 0.00 58 1006.5
20260504004913 44 283 5.0 7.0 0.00 0.00 0.00 58 1006.4
20260504004411 44 281 5.0 7.0 0.00 0.00 0.00 58 1006.4
20260504003908 44 280 3.0 5.0 0.00 0.00 0.00 60 1006.2
20260504003404 44 327 2.0 3.0 0.00 0.00 0.00 60 1006.1
20260504002901 43 311 3.0 3.0 0.00 0.00 0.00 59 1006.2
20260504002358 43 294 4.0 5.0 0.00 0.00 0.00 64 1006.2
20260504001855 43 27 2.0 2.0 0.00 0.00 0.00 59 1005.9
20260504001353 44 34 2.0 2.0 0.00 0.00 0.00 58 1005.9
20260504000849 45 330 2.0 3.0 0.00 0.00 0.00 54 1005.9
20260504000346 45 279 3.0 3.0 0.00 0.00 0.00 53 1005.8
20260503235844 45 308 2.0 5.0 0.00 0.00 0.00 52 1005.7
20260503235341 46 289 3.0 3.0 0.00 0.00 0.00 53 1005.8
20260503234838 46 286 4.0 5.0 0.00 0.00 0.00 53 1005.6
20260503234336 46 283 3.0 7.0 0.00 0.00 0.00 52 1005.5
20260503233834 46 288 4.0 7.0 0.00 0.00 0.00 52 1005.5
20260503233330 46 298 5.0 9.0 0.00 0.00 0.00 50 1005.5
20260503232826 47 308 5.0 9.0 0.00 0.00 0.00 50 1005.3
20260503232324 47 328 7.0 7.0 0.00 0.00 0.00 51 1005.5
20260503231821 47 286 4.0 9.0 0.00 0.00 0.00 50 1005.2
20260503231318 47 293 4.0 9.0 0.00 0.00 0.00 48 1005.1
20260503230814 47 282 8.0 10.0 0.00 0.00 0.00 49 1005.2
20260503230311 47 314 8.0 12.0 0.00 0.00 0.00 47 1005.1
20260503225809 47 288 5.0 9.0 0.00 0.00 0.00 49 1005.0
20260503225305 48 290 7.0 10.0 0.00 0.00 0.00 47 1005.1
20260503224801 48 283 14.0 19.0 0.00 0.00 0.00 45 1004.8
20260503224259 48 303 4.0 12.0 0.00 0.00 0.00 46 1004.8
20260503223756 48 281 9.0 14.0 0.00 0.00 0.00 45 1004.7
20260503223254 49 265 10.0 17.0 0.00 0.00 0.00 45 1004.7
20260503222749 49 326 9.0 12.0 0.00 0.00 0.00 45 1004.6